When you browse on this site, cookies collect data to enhance your experience and personalize the content and advertising you see.
Visit our Privacy Policy to learn more. By continuing to use the site, you agree to this use of cookies and data.
  • En España
  • Lista de países
  • Para 7 días
  • Temperatura del agua
  • El tiempo en el mapa
  • Informadores
  • user-avatar
    Iniciar sesión

    Tiempo cada hora Shkoder

    Hoy, 9 Diciembre, Lunes

    Tiempo Temperatura Precipitaciones Viento Presión Humedad
    00:00 +9°C° 0 mm 1 mps 741 mmHg 83%
    01:00 +9°C° 0 mm 1 mps 741 mmHg 83%
    02:00 +8°C° 0 mm 1 mps 740 mmHg 84%
    03:00 +8°C° 0 mm 1 mps 739 mmHg 84%
    04:00 +8°C° 0 mm 1 mps 739 mmHg 85%
    05:00 +8°C° 0 mm 1 mps 739 mmHg 85%
    06:00 +8°C° 0 mm 1 mps 739 mmHg 85%
    07:00 +8°C° 0 mm 1 mps 739 mmHg 85%
    08:00 +9°C° 0 mm 1 mps 739 mmHg 82%
    09:00 +11°C° 0 mm 1 mps 738 mmHg 79%
    10:00 +12°C° 0 mm 1 mps 738 mmHg 75%
    11:00 +12°C° 0 mm 1 mps 737 mmHg 74%
    12:00 +13°C° 0 mm 1 mps 737 mmHg 73%
    13:00 +13°C° 0 mm 1 mps 736 mmHg 71%
    14:00 +13°C° 0 mm 1 mps 736 mmHg 74%
    15:00 +12°C° 0 mm 1 mps 735 mmHg 77%
    16:00 +11°C° 0 mm 1 mps 735 mmHg 80%
    17:00 +11°C° 0.2 mm 1 mps 735 mmHg 80%
    18:00 +11°C° 0.2 mm 1 mps 735 mmHg 81%
    19:00 +10°C° 0.2 mm 1 mps 734 mmHg 81%
    20:00 +10°C° 0.6 mm 1 mps 734 mmHg 83%
    21:00 +11°C° 0.6 mm 1 mps 734 mmHg 85%
    22:00 +11°C° 0.6 mm 1 mps 734 mmHg 87%
    23:00 +11°C° 0.3 mm 1 mps 734 mmHg 87%

    Mañana, 10 Diciembre, Martes

    Tiempo Temperatura Precipitaciones Viento Presión Humedad
    00:00 +11°C° 0.3 mm 1 mps 734 mmHg 86%
    01:00 +11°C° 0.3 mm 1 mps 734 mmHg 86%
    02:00 +11°C° 0.1 mm 1 mps 733 mmHg 86%
    03:00 +11°C° 0.1 mm 1 mps 733 mmHg 86%
    04:00 +11°C° 0.1 mm 1 mps 733 mmHg 86%
    05:00 +10°C° 0 mm 1 mps 733 mmHg 86%
    06:00 +10°C° 0 mm 1 mps 733 mmHg 86%
    07:00 +10°C° 0 mm 1 mps 733 mmHg 86%
    08:00 +10°C° 0 mm 2 mps 733 mmHg 85%
    09:00 +10°C° 0 mm 2 mps 734 mmHg 84%
    10:00 +10°C° 0 mm 2 mps 734 mmHg 82%
    11:00 +10°C° 0.2 mm 2 mps 734 mmHg 83%
    12:00 +10°C° 0.2 mm 2 mps 734 mmHg 83%
    13:00 +10°C° 0.2 mm 2 mps 734 mmHg 84%
    14:00 +10°C° 0.3 mm 3 mps 734 mmHg 84%
    15:00 +9°C° 0.3 mm 3 mps 734 mmHg 85%
    16:00 +8°C° 0.3 mm 4 mps 734 mmHg 85%
    17:00 +8°C° 0.2 mm 4 mps 734 mmHg 84%
    18:00 +7°C° 0.2 mm 4 mps 735 mmHg 83%
    19:00 +7°C° 0.2 mm 4 mps 735 mmHg 82%
    20:00 +7°C° 0.1 mm 4 mps 735 mmHg 82%
    21:00 +7°C° 0.1 mm 5 mps 735 mmHg 81%
    22:00 +7°C° 0.1 mm 5 mps 736 mmHg 80%
    23:00 +6°C° 0.1 mm 5 mps 736 mmHg 79%

    Pasado mañana, 11 Diciembre, Miércoles

    Tiempo Temperatura Precipitaciones Viento Presión Humedad
    00:00 +6°C° 0.1 mm 5 mps 736 mmHg 79%
    01:00 +6°C° 0.1 mm 5 mps 736 mmHg 78%
    02:00 +6°C° 0 mm 5 mps 736 mmHg 77%
    03:00 +6°C° 0 mm 5 mps 736 mmHg 76%
    04:00 +6°C° 0 mm 5 mps 736 mmHg 75%
    05:00 +5°C° 0 mm 5 mps 736 mmHg 76%
    06:00 +5°C° 0 mm 5 mps 736 mmHg 76%
    07:00 +5°C° 0 mm 5 mps 736 mmHg 76%
    08:00 +6°C° 0 mm 5 mps 736 mmHg 74%
    09:00 +6°C° 0 mm 5 mps 736 mmHg 72%
    10:00 +7°C° 0 mm 5 mps 737 mmHg 70%
    11:00 +7°C° 0 mm 5 mps 736 mmHg 69%
    12:00 +8°C° 0 mm 4 mps 736 mmHg 68%
    13:00 +8°C° 0 mm 4 mps 736 mmHg 67%
    14:00 +8°C° 0 mm 4 mps 736 mmHg 69%
    15:00 +7°C° 0 mm 4 mps 736 mmHg 72%
    16:00 +7°C° 0 mm 3 mps 735 mmHg 75%
    17:00 +7°C° 0 mm 3 mps 736 mmHg 76%
    18:00 +5°C° 0 mm 3 mps 736 mmHg 78%
    19:00 +5°C° 0 mm 3 mps 736 mmHg 79%
    20:00 +4°C° 0 mm 3 mps 736 mmHg 79%
    21:00 +5°C° 0 mm 2 mps 736 mmHg 80%
    22:00 +5°C° 0 mm 2 mps 736 mmHg 80%
    23:00 +5°C° 0 mm 2 mps 735 mmHg 80%

    12 Diciembre, Jueves

    Tiempo Temperatura Precipitaciones Viento Presión Humedad
    00:00 +5°C° 0 mm 2 mps 735 mmHg 80%
    01:00 +5°C° 0 mm 2 mps 735 mmHg 80%
    02:00 +6°C° 0 mm 1 mps 735 mmHg 80%
    03:00 +6°C° 0 mm 1 mps 734 mmHg 80%
    04:00 +6°C° 0 mm 1 mps 734 mmHg 80%
    05:00 +6°C° 0 mm 1 mps 734 mmHg 79%
    06:00 +6°C° 0 mm 1 mps 734 mmHg 78%
    07:00 +6°C° 0 mm 1 mps 734 mmHg 78%
    08:00 +7°C° 0 mm 1 mps 734 mmHg 75%
    09:00 +8°C° 0 mm 1 mps 734 mmHg 72%
    10:00 +9°C° 0 mm 0 mps 734 mmHg 70%
    11:00 +10°C° 0 mm 1 mps 734 mmHg 69%
    12:00 +10°C° 0 mm 1 mps 734 mmHg 69%
    13:00 +11°C° 0 mm 1 mps 733 mmHg 69%
    14:00 +10°C° 0 mm 1 mps 733 mmHg 73%
    15:00 +9°C° 0 mm 1 mps 733 mmHg 78%
    16:00 +7°C° 0 mm 0 mps 733 mmHg 82%
    17:00 +7°C° 0 mm 0 mps 734 mmHg 83%
    18:00 +7°C° 0 mm 0 mps 734 mmHg 83%
    19:00 +7°C° 0 mm 0 mps 734 mmHg 84%
    20:00 +7°C° 0 mm 0 mps 734 mmHg 84%
    21:00 +7°C° 0 mm 0 mps 734 mmHg 85%
    22:00 +7°C° 0 mm 1 mps 734 mmHg 86%
    23:00 +7°C° 0.1 mm 1 mps 734 mmHg 87%

    13 Diciembre, Viernes

    Tiempo Temperatura Precipitaciones Viento Presión Humedad
    00:00 +8°C° 0.1 mm 1 mps 734 mmHg 88%
    01:00 +8°C° 0.1 mm 1 mps 734 mmHg 88%
    02:00 +7°C° 0.1 mm 1 mps 734 mmHg 89%
    03:00 +7°C° 0.1 mm 1 mps 733 mmHg 89%
    04:00 +7°C° 0.1 mm 1 mps 733 mmHg 90%
    05:00 +7°C° 0 mm 1 mps 733 mmHg 90%
    06:00 +7°C° 0 mm 1 mps 733 mmHg 89%
    07:00 +7°C° 0 mm 1 mps 733 mmHg 89%
    08:00 +8°C° 0.1 mm 1 mps 733 mmHg 87%
    09:00 +9°C° 0.1 mm 1 mps 733 mmHg 85%
    10:00 +9°C° 0.1 mm 1 mps 733 mmHg 83%
    11:00 +10°C° 0.1 mm 1 mps 733 mmHg 83%
    12:00 +9°C° 0.1 mm 2 mps 733 mmHg 82%
    13:00 +9°C° 0.1 mm 2 mps 732 mmHg 82%
    14:00 +9°C° 0.1 mm 2 mps 732 mmHg 85%
    15:00 +8°C° 0.1 mm 2 mps 732 mmHg 87%
    16:00 +8°C° 0.1 mm 2 mps 732 mmHg 90%
    17:00 +8°C° 0.3 mm 2 mps 732 mmHg 90%
    18:00 +8°C° 0.3 mm 2 mps 732 mmHg 91%
    19:00 +8°C° 0.3 mm 2 mps 732 mmHg 91%
    20:00 +8°C° 0.8 mm 2 mps 731 mmHg 91%
    21:00 +8°C° 0.8 mm 2 mps 731 mmHg 91%
    22:00 +7°C° 0.8 mm 2 mps 731 mmHg 91%
    23:00 +7°C° 1.4 mm 2 mps 731 mmHg 92%

    14 Diciembre, Sábado

    Tiempo Temperatura Precipitaciones Viento Presión Humedad
    00:00 +7°C° 1.4 mm 2 mps 731 mmHg 93%
    01:00 +7°C° 1.4 mm 2 mps 731 mmHg 94%
    02:00 +7°C° 1.5 mm 2 mps 731 mmHg 95%
    03:00 +7°C° 1.5 mm 2 mps 731 mmHg 95%
    04:00 +9°C° 1.5 mm 1 mps 731 mmHg 95%
    05:00 +9°C° 0 mm 1 mps 731 mmHg 94%
    06:00 +9°C° 0 mm 1 mps 732 mmHg 94%
    07:00 +9°C° 0 mm 1 mps 732 mmHg 93%
    08:00 +10°C° 0.1 mm 1 mps 733 mmHg 92%
    09:00 +10°C° 0.1 mm 1 mps 733 mmHg 91%
    10:00 +11°C° 0.1 mm 1 mps 734 mmHg 90%
    11:00 +11°C° 0 mm 1 mps 734 mmHg 89%
    12:00 +12°C° 0 mm 1 mps 734 mmHg 88%
    13:00 +12°C° 0 mm 1 mps 734 mmHg 87%
    14:00 +12°C° 0.1 mm 1 mps 734 mmHg 89%
    15:00 +12°C° 0.1 mm 1 mps 735 mmHg 91%
    16:00 +11°C° 0.1 mm 1 mps 735 mmHg 93%
    17:00 +11°C° 0.1 mm 1 mps 736 mmHg 93%
    18:00 +11°C° 0.1 mm 1 mps 737 mmHg 93%
    19:00 +11°C° 0.1 mm 1 mps 737 mmHg 92%
    20:00 +11°C° 0 mm 1 mps 738 mmHg 92%
    21:00 +11°C° 0 mm 1 mps 739 mmHg 91%
    22:00 +11°C° 0 mm 1 mps 739 mmHg 91%
    23:00 +11°C° 0 mm 1 mps 739 mmHg 91%
    Mostrar más